Weather in Annapolis

United States     38°58′41″N   76°29′34″W
temp.,
°C
wind,
m/s
gust,
m/s
humid.,
%
clouds,
%
prec.,
mm/h
press.,
hPa
HPBL,
m
17 september, fri
fri1723:00+23ene4691100 0.0 1021348
02:00+22ne4692100 0.0 1021304
05:00+22ne5793100 0.0 1021372
08:00+22ne5791100 0.1 1022427
11:00+24ne567995 0.0 1022665
14:00+26ene467092 0.1 1021802
17:00+24ne468272 1.9 1019422
20:00+23ene358427 2.0 1019277
18 september, sat
sat1823:00+22e228616 0.1 1019153
02:00+21n12890 0.1 1018117
05:00+21nnw22914 0.0 1018119
08:00+22nnw12890 0.0 1019172
11:00+26n136713 0.0 1019797
14:00+28e235914 0.0 10171064
17:00+25se227190 0.1 1016117
20:00+24wsw11780 0.2 101821
19 september, sun
sun1923:00+22wsw23815 0.0 101853
02:00+22nw22820 0.0 101946
05:00+22nne46800 0.0 1020229
08:00+22nne47761 0.0 1021347
11:00+24nne45565 0.0 1023673
14:00+26ne344611 0.0 1022854
17:00+26ene34485 0.0 1020412
20:00+23ne346336 0.0 1022108
20 september, mon
mon2023:00+22e456583 0.0 1023173
02:00+20se2371100 0.0 1024133
05:00+19se2371100 0.0 1024143
08:00+20ese3472100 0.0 1025211
11:00+23ese345874 0.0 1026643
14:00+25se2446100 0.0 1025864
17:00+24se245989 0.0 1024221
20:00+22se5870100 0.0 1025523
21 september, tue
tue2123:00+20se5876100 0.0 1026482
02:00+20se5880100 0.0 1025438
05:00+19se4783100 0.0 1025316
08:00+20se4682100 0.0 1025380
11:00+23se5570100 0.0 1025831
14:00+24sse4563100 0.0 1024965
17:00+24s5662100 0.0 1022534
20:00+23s587295 0.0 1021481